Location: Orange Harbor Mobile Home Park
(26.6923°N, 81.7937°W)
Time: 22:53:21
(UTC+00:00)

Cosmos 158 Rocket - Pass Details

Date: 19 September 2020
Orbit: 699 x 793 km, 74.0° (Epoch: 24 October)

Event Time Altitude Azimuth Distance (km) Brightness Sun altitude
Rises 00:17:17 0° 345° (NNW) 3,233 7.6 -11.9°
Reaches altitude 10° 00:19:41 10° 346° (NNW) 2,290 6.8 -12.4°
Maximum altitude 00:24:53 87° 74° (ENE) 749 3.9 -13.6°
Drops below altitude 10° 00:29:55 10° 165° (SSE) 2,217 6.2 -14.7°
Sets 00:32:12 0° 165° (SSE) 3,121 6.9 -15.2°
